2015-049G (40905 NORAD) Tracking and Keplerian Element Data

This shows tracking and keplerian element data for the satellite.

Feedback or suggestion? Click here.




ElementValue
Catalog40905
Name2015-049G
Epoch Orbit45990
Epoch Day13.12172692
Epoch Year2024
RAAN21.0322
Inclination97.5253
Eccentricity0.0012941
Argument of Perigee162.0266
Mean Anonmoly198.1431
Mean Motion15.24685861
Decay Rate0.0001005
L11 40905U 15049G 24013.12172692 .00010050 00000+0 40840-3 0 9991
L22 40905 97.5253 21.0322 0012941 162.0266 198.1431 15.24685861459901



Live tracking and technical data element details for 2015-049G (NORAD 40905). 2015-049G can be tracked NOW for your location showing map with azimuth and elevation plus other details from your city location.







IsCatalogInMostPopularTable: catalog: 40905, numindb: 828
Update: records affected: 1



GetName: 40905 2015-049G

Hit Count: updated at: Sat, 06 Dec 2025 13:19:38 GMT